C/2013 V4 ( Catalina )

Japanese version
Home page
Updated on August 15, 2020

---------------------------------------------------------------------

* Profile

Discovery Date November 9, 2013
Magnitude 17.7 mag
Discoverer R. E. Hill (Catalina Sky Survey)

* Pictures

* Orbital Elements

Epoch 2015 Oct. 25.0 TT = JDT 2457320.5
T 2015 Oct. 7.60022 TT                                  MPCW
q   5.1854146            (2000.0)            P               Q
z  -0.0004980      Peri.   40.44922     +0.22786115     -0.60307972
 +/-0.0000002      Node    55.62129     +0.46389290     -0.62303001
e   1.0025822      Incl.   67.85538     +0.85608567     +0.49812495
From 2327 observations 2013 Oct. 23-2018 Aug. 6, mean residual 0".5.

* Finding Charts

* Magnitudes Graph

        m1 = 5.0 + 5 log d + 10.0 log r

---------------------------------------------------------------------

The orbital elements are published on M.P.E.C. 2018-S50.
The charts are made with StellaNavigator Ver.8 (AstroArts).
The magnitudes graphs are made with Comet for Windows.

---------------------------------------------------------------------

Copyright(C) Seiichi Yoshida (comet@aerith.net). All rights reserved.